Theta_e
313 311 311 312 317 320 318 319 316 318 319 310 312 313 317 321 321 320 321 321 320 329 334 333 334 337 342 342 342 343 349 349 348 341 340 353 352 349 353 350 350 349 348 345 344 342 336 330 328 329 324 316 317 326 335 337 336 337 336 337 337 339 339 339 340 341 342 343 343 343 343 343 343 343 343 343 343 343 344 343 344 343 343 342 340 340 341 341 342 341 340 338 336 334 333 333 334
315 312 312 315 319 318 318 320 314 313 314 308 312 315 318 323 322 320 321 321 324 334 335 334 338 340 343 345 343 343 350 350 351 351 350 352 351 352 353 350 350 348 347 345 344 344 340 331 327 330 324 318 321 330 336 338 337 336 335 336 337 339 339 340 341 342 343 343 343 343 343 343 343 343 342 343 343 343 343 343 343 342 341 340 339 340 341 341 341 341 340 338 335 335 335 335 335
314 313 316 317 319 318 318 319 313 309 309 308 311 318 321 321 321 320 322 323 332 337 337 338 341 344 342 344 343 344 350 349 348 348 348 351 352 352 351 350 349 348 346 346 344 344 343 333 327 330 325 319 326 334 337 340 338 337 336 337 339 340 341 342 342 342 343 343 343 343 343 343 343 343 342 342 342 343 342 342 342 342 341 340 340 339 340 341 340 340 340 338 337 337 338 337 335
312 314 318 317 317 318 317 317 314 310 308 308 309 319 322 320 321 321 327 331 336 338 339 341 343 345 344 346 345 346 352 350 349 347 349 350 352 351 351 350 348 348 345 346 344 345 342 332 328 331 325 320 330 336 337 340 339 339 340 340 342 341 342 342 343 343 343 344 343 342 342 343 343 343 342 342 341 341 341 341 342 342 342 341 340 339 340 340 340 339 339 338 338 338 337 334 331
314 316 317 317 317 317 318 317 316 311 309 311 310 318 321 319 319 321 330 332 335 338 340 343 344 346 345 348 347 348 351 349 349 348 349 350 352 351 350 349 348 347 346 346 344 346 340 330 329 331 326 321 331 337 337 340 339 340 341 342 343 342 343 342 343 343 343 344 343 342 342 342 342 342 342 341 341 341 340 340 338 338 339 340 340 339 339 338 338 339 338 338 338 336 331 329 329
316 316 316 317 317 317 317 313 313 311 314 317 314 318 320 318 319 320 326 327 331 335 337 342 344 346 346 348 348 348 350 348 349 348 350 351 351 350 350 349 347 346 345 346 344 346 339 331 330 330 327 320 330 336 336 340 340 340 341 342 343 343 343 343 343 343 343 344 343 342 342 342 341 341 340 340 340 339 337 336 334 333 334 336 338 338 338 337 336 337 338 337 335 331 327 327 330
316 316 315 315 316 316 314 310 310 311 316 319 317 319 319 319 319 319 321 323 331 336 337 341 343 346 348 348 348 348 349 349 349 348 350 351 351 350 350 348 347 346 345 345 344 345 338 331 330 329 326 321 330 337 336 339 340 340 341 341 343 343 343 343 343 343 344 343 342 342 342 341 340 339 338 337 337 336 335 335 335 334 334 333 335 335 336 336 335 336 336 332 329 327 326 329 331
315 317 316 314 315 315 312 310 312 314 317 319 318 318 318 318 318 318 320 320 328 334 335 341 342 344 348 348 350 349 348 349 349 349 350 350 350 349 349 348 346 346 345 345 344 344 338 331 330 329 326 321 329 336 337 338 340 340 340 341 342 343 343 343 343 343 343 343 342 342 342 341 340 339 337 335 334 336 335 333 333 334 335 333 333 333 333 332 332 332 330 327 326 325 327 331 332
314 316 316 314 314 314 312 310 313 315 317 317 318 317 317 318 317 316 317 319 321 324 327 338 342 342 347 349 350 349 349 350 349 349 350 350 350 349 348 347 346 345 344 344 345 344 341 334 330 329 328 324 328 335 337 337 339 340 340 341 342 344 343 343 343 343 343 343 343 342 342 341 340 338 336 333 331 331 330 329 329 329 329 332 331 329 329 326 325 326 325 326 325 325 329 332 331
315 314 315 314 313 311 309 310 312 315 317 317 316 316 317 316 316 316 315 317 319 318 324 337 341 342 347 349 349 349 349 350 349 349 349 350 350 349 348 347 346 346 343 344 345 345 342 337 333 331 329 329 330 333 336 336 337 339 339 341 343 343 343 343 343 343 342 343 343 342 342 340 339 337 335 332 328 326 328 331 331 327 323 327 328 324 325 324 324 324 323 324 324 327 331 332 331
314 314 314 314 311 308 308 310 312 315 317 316 316 315 316 315 315 315 315 316 317 317 323 336 340 342 347 349 350 349 351 350 350 350 349 349 349 348 347 347 346 345 344 345 345 344 343 341 338 334 333 334 332 332 335 336 337 339 340 341 342 343 342 342 342 343 342 342 342 342 341 340 339 337 336 334 330 326 330 333 331 329 322 322 327 327 329 330 327 324 322 324 327 330 331 332 332
314 314 314 311 310 310 310 310 312 316 316 315 315 315 315 316 316 315 316 316 317 317 321 334 340 341 348 350 350 349 351 350 351 350 350 349 348 349 347 347 346 345 345 345 345 344 343 342 341 338 337 334 330 333 336 337 337 338 340 341 342 342 342 342 342 342 342 342 342 341 340 339 338 337 337 336 333 329 330 332 331 331 325 318 324 328 330 330 326 322 324 327 329 331 332 332 332
314 315 314 310 311 312 312 312 313 315 315 315 316 315 316 316 316 316 317 317 317 317 319 333 340 342 348 351 350 350 351 351 351 350 350 349 349 349 347 347 346 345 346 346 345 344 344 343 342 341 339 335 332 335 337 337 337 337 339 340 341 342 342 342 342 342 342 342 342 341 340 339 338 337 337 335 333 331 330 332 333 332 327 319 322 328 329 328 325 325 328 329 330 331 332 332 332
313 315 315 312 313 314 313 312 313 313 312 316 316 315 316 315 316 318 320 320 318 317 320 335 340 343 349 351 350 350 351 351 351 350 350 349 349 349 348 347 346 346 346 345 344 344 344 343 343 342 340 339 337 337 337 337 336 337 337 338 340 341 341 341 341 342 341 342 341 341 340 339 338 337 337 335 333 330 328 330 333 333 330 322 320 326 328 327 326 327 329 330 331 331 332 332 332
314 315 315 313 313 313 313 312 313 312 312 317 315 315 316 316 320 322 323 321 317 321 327 337 341 344 348 350 351 350 351 351 351 350 350 349 349 348 348 347 346 346 345 346 344 343 344 343 344 343 342 342 340 339 339 337 335 335 335 336 339 340 341 341 341 341 341 341 340 340 339 338 337 336 335 334 332 330 330 330 330 331 332 325 318 322 325 326 327 329 330 330 331 331 332 332 331
315 315 314 313 312 311 312 314 314 312 313 316 314 316 315 320 331 332 331 325 323 330 334 338 341 344 344 345 348 349 350 350 350 349 349 348 348 348 348 347 346 346 345 345 344 343 344 344 344 343 343 342 342 341 340 338 335 333 334 336 338 339 341 341 341 341 340 340 340 340 339 339 338 336 335 336 335 332 331 331 329 329 331 327 320 318 321 324 326 329 330 330 331 331 333 332 332
315 314 314 313 311 311 313 314 314 312 314 316 315 316 315 326 341 339 336 329 327 332 334 339 342 344 344 345 349 350 350 349 349 348 349 349 348 347 347 346 346 346 345 345 344 344 344 344 344 343 343 342 342 341 340 340 335 332 334 336 337 339 340 340 340 340 340 339 339 339 338 339 339 337 337 338 337 335 332 330 329 328 329 329 324 319 318 321 324 327 329 330 331 331 333 333 332
314 314 313 312 312 313 315 315 315 314 316 316 315 316 315 328 342 339 333 327 329 336 340 343 344 345 346 349 350 349 349 348 348 348 348 349 348 347 347 346 346 346 345 345 344 344 344 344 343 343 342 341 341 340 339 339 336 335 335 336 337 339 339 339 339 339 339 339 338 338 338 338 337 337 339 339 338 338 334 332 331 329 329 330 328 324 319 319 322 325 328 329 330 331 333 336 335
314 315 313 313 315 314 315 315 315 315 315 316 316 316 314 325 338 338 333 330 335 341 344 346 346 346 347 349 349 349 348 348 348 348 348 349 348 347 347 346 345 345 344 344 344 344 344 343 342 342 342 341 340 340 339 338 337 336 336 336 337 338 339 338 338 339 339 338 337 337 337 337 337 337 337 336 336 337 335 334 335 332 330 329 329 328 324 320 319 322 326 328 329 330 334 337 337
313 315 315 315 316 316 315 314 314 314 315 316 316 316 315 319 327 331 335 337 338 341 343 347 348 346 347 348 348 348 347 348 348 348 349 348 348 347 346 346 345 344 344 344 344 344 343 342 342 341 341 340 339 339 339 338 337 336 336 336 337 337 337 337 338 338 338 338 337 337 337 335 335 336 333 332 334 336 335 335 336 334 332 330 329 331 330 325 320 320 322 325 330 331 334 335 335
313 315 316 316 316 316 315 313 314 314 315 316 315 316 317 317 317 320 331 339 338 339 343 345 347 347 347 347 347 348 348 348 348 348 348 347 347 346 345 345 344 344 343 343 343 343 343 342 342 341 340 339 338 338 338 337 336 336 336 336 336 337 336 336 337 336 337 337 336 336 336 335 335 336 335 334 335 336 336 335 336 336 336 334 332 335 336 332 328 328 325 326 332 333 334 335 335
315 316 315 316 317 315 316 315 314 315 315 316 316 316 316 317 317 318 329 337 336 338 342 343 346 347 346 346 346 347 347 347 348 347 346 346 346 345 345 344 344 344 343 343 343 343 342 341 341 340 339 338 336 336 337 337 336 335 336 336 336 336 336 336 336 336 336 336 335 335 336 336 337 338 338 338 337 337 337 336 336 336 337 336 335 336 338 336 335 334 331 330 332 333 334 335 336
315 316 315 316 317 315 316 316 315 316 315 315 316 317 316 317 317 320 328 336 339 340 343 344 345 347 347 347 346 346 345 344 345 345 345 346 345 345 344 343 343 343 342 342 342 342 341 340 340 339 337 337 336 335 336 336 335 336 336 336 336 336 336 336 336 335 335 335 335 336 337 338 339 339 339 339 339 339 338 338 338 337 337 337 336 336 336 336 336 334 334 333 331 331 333 334 335
314 315 315 316 316 316 316 317 316 316 315 316 316 316 316 316 318 326 330 338 344 343 343 343 344 348 347 346 345 345 344 344 345 344 344 345 345 344 343 343 342 342 342 341 341 341 340 340 339 338 336 336 336 335 335 335 335 336 337 336 335 335 335 335 336 335 335 336 336 337 338 338 338 339 339 339 339 339 340 340 340 340 340 339 337 337 336 335 335 335 335 335 332 330 331 334 335
313 313 315 316 315 315 315 316 316 316 316 316 316 316 316 319 325 331 334 340 345 343 343 343 345 347 346 345 345 345 344 344 346 345 345 345 345 345 343 342 342 342 341 341 341 340 339 339 338 337 336 335 335 335 335 334 335 336 336 336 335 335 336 336 336 336 336 336 337 338 338 338 338 339 339 340 341 342 342 342 342 341 341 341 340 339 339 337 336 335 335 335 334 332 331 333 334
313 313 314 315 315 316 315 315 315 315 316 316 316 315 318 329 334 335 338 343 345 344 344 343 344 346 346 346 346 345 344 345 347 347 346 346 345 345 344 342 342 341 341 341 340 339 339 338 337 336 336 335 335 335 335 335 335 336 336 336 336 336 336 337 337 338 337 337 338 338 338 339 339 340 340 340 340 341 342 342 342 342 340 340 340 340 340 340 338 336 335 334 334 334 333 333 334
314 313 313 315 314 315 316 316 315 315 316 315 316 315 320 334 339 339 343 345 344 344 345 344 344 346 346 346 346 346 345 346 347 347 346 346 345 345 344 342 341 341 341 340 339 339 338 337 336 336 336 336 335 335 335 335 336 336 337 337 337 338 338 338 339 339 339 339 339 339 339 339 339 339 339 339 339 339 339 340 341 341 341 341 340 341 340 340 340 339 337 335 335 335 333 334 334
315 314 313 314 314 315 316 316 316 316 316 315 316 315 321 333 337 341 347 345 345 346 346 346 345 345 346 346 345 346 346 347 347 346 346 346 345 344 343 341 341 341 340 340 339 338 337 336 336 336 336 337 336 336 336 336 337 337 337 338 339 339 339 340 340 340 340 339 339 339 339 339 339 339 338 338 338 338 338 338 339 340 340 340 340 340 340 340 340 339 339 338 337 335 334 334 334
314 313 313 314 313 314 314 315 315 315 316 316 316 315 319 330 334 342 347 345 345 346 347 347 346 346 345 345 345 344 346 347 346 346 346 346 345 344 343 342 341 340 340 339 338 337 336 337 337 337 337 337 337 336 337 337 337 338 338 339 339 339 339 340 340 340 340 339 338 338 338 338 338 338 338 338 337 337 338 338 338 339 340 340 340 339 339 340 340 339 340 340 339 337 335 334 334
313 312 312 313 313 313 314 315 314 315 316 315 316 313 316 327 335 344 347 345 347 346 347 346 346 346 345 345 345 345 346 346 346 345 343 342 341 342 342 341 340 340 340 339 338 337 337 338 338 339 339 338 338 337 338 339 339 339 339 339 339 339 339 339 339 339 339 338 338 338 338 338 338 338 338 337 337 337 337 338 338 339 339 338 339 339 340 340 340 339 339 339 339 339 337 337 336
312 311 311 312 311 311 314 315 314 315 315 316 316 311 315 331 341 346 347 345 348 346 346 346 346 347 346 346 345 344 344 345 344 341 339 337 336 340 341 340 340 340 340 338 337 338 338 339 340 340 340 339 339 340 340 341 340 340 339 340 339 340 340 339 339 338 338 338 338 338 338 338 338 337 337 337 337 337 337 337 337 337 337 337 338 338 339 339 338 339 339 339 338 338 338 338 338
311 310 309 310 309 311 315 315 314 316 314 316 316 312 321 338 344 346 347 347 350 346 346 346 346 347 346 346 345 342 343 343 342 340 338 337 337 339 340 340 341 341 339 338 338 338 339 340 340 341 341 340 341 341 341 341 340 339 339 340 340 339 339 338 338 338 338 338 338 338 338 338 338 337 337 338 338 338 338 338 338 337 337 337 337 337 337 337 337 337 338 338 337 337 338 337 337
311 310 309 309 309 311 314 314 314 315 315 316 316 314 323 336 342 346 347 348 350 346 345 347 346 347 346 345 344 342 342 342 341 341 340 338 338 339 340 341 342 341 340 338 339 339 340 341 341 341 341 341 341 341 341 340 340 340 340 339 339 339 338 338 338 338 338 338 338 338 339 339 338 338 338 339 339 338 338 338 338 337 337 337 337 336 336 336 336 336 336 336 336 336 336 337 337
310 310 310 310 310 310 311 313 315 315 316 316 317 317 321 331 340 345 346 347 349 346 346 347 342 339 338 339 340 338 339 340 340 340 340 339 340 340 340 341 341 342 341 339 339 340 341 340 340 340 340 340 340 340 340 339 340 340 340 339 339 338 338 338 338 339 338 338 338 338 339 340 340 340 340 340 339 339 338 338 338 338 337 337 337 336 336 336 335 335 335 335 335 335 335 336 336
310 309 310 311 311 310 311 313 314 314 315 316 317 317 322 331 338 342 344 344 345 343 343 340 335 334 333 334 336 335 337 340 341 342 341 340 341 341 341 341 341 341 340 340 340 340 340 340 340 340 339 339 340 340 340 339 340 340 340 339 339 338 338 339 338 339 339 338 339 339 339 340 339 339 339 340 339 339 338 338 338 339 338 338 337 336 335 335 335 334 335 335 335 335 335 336 335
312 311 310 311 309 309 312 314 313 315 315 316 318 316 321 330 335 340 342 341 340 336 335 335 333 334 335 335 336 337 339 341 340 339 340 341 341 340 341 341 339 338 338 339 339 340 340 339 340 339 339 340 339 340 340 340 340 339 339 339 339 339 339 339 339 339 339 338 338 338 339 339 338 338 339 339 339 338 338 338 338 338 338 337 336 336 335 334 334 334 334 335 334 334 335 336 336
313 312 311 311 309 309 313 314 313 315 314 315 317 316 321 327 331 339 340 338 335 334 335 335 334 334 336 337 337 339 340 339 336 333 334 337 338 338 340 340 337 335 337 338 338 339 339 339 339 338 339 340 340 340 341 341 340 339 338 339 339 339 339 339 339 338 338 338 338 338 338 339 339 339 339 339 338 338 338 338 338 338 337 336 336 336 335 334 334 334 335 335 335 335 336 336 336
313 311 310 310 310 311 313 314 313 314 314 315 316 316 320 323 328 337 339 337 334 335 337 337 336 335 337 339 340 340 338 336 335 334 334 335 334 334 336 338 337 334 336 338 337 337 339 338 338 339 339 340 341 340 340 340 339 339 338 338 338 338 338 338 338 338 337 337 337 337 337 338 338 338 338 338 338 338 338 338 337 337 336 336 336 336 335 334 335 335 335 334 335 336 336 336 335
312 311 310 309 310 311 313 314 313 314 313 314 316 316 319 327 333 339 340 338 336 336 339 338 335 334 337 339 338 339 338 337 336 336 337 336 333 333 334 336 337 334 334 336 335 336 338 338 337 339 340 339 340 339 339 339 338 338 338 338 338 338 337 337 337 337 337 337 336 336 336 336 336 336 336 336 336 337 337 336 336 336 335 335 335 334 334 334 335 335 335 334 335 334 335 335 335
312 311 309 308 310 311 310 312 314 314 313 315 317 314 323 338 342 343 341 339 339 339 341 339 336 335 336 338 337 337 338 337 335 335 338 338 334 333 332 332 333 334 333 333 335 337 338 338 339 340 339 339 339 339 339 338 338 338 338 338 337 337 337 336 336 335 335 336 335 334 334 334 334 334 334 334 334 334 335 335 334 335 335 334 334 334 334 333 333 335 334 335 334 333 333 334 334
312 312 310 309 311 311 310 312 314 314 314 316 315 313 322 336 340 343 342 340 341 342 342 340 338 337 335 337 337 337 337 336 336 337 339 339 336 334 331 330 332 333 333 333 335 336 336 337 338 339 339 338 338 338 338 338 338 338 338 337 337 337 337 336 336 335 334 334 333 333 333 332 332 332 332 332 332 332 332 332 333 333 334 333 333 333 333 333 333 334 334 334 334 333 333 334 334
311 312 312 312 313 312 312 314 313 312 311 314 314 311 316 327 334 342 342 340 341 341 340 340 340 338 336 338 338 338 337 336 337 338 339 340 336 332 331 333 335 335 335 336 336 336 337 337 338 338 339 338 338 338 338 338 338 337 337 337 337 336 336 335 334 334 333 333 333 332 332 331 331 331 330 330 330 330 331 331 331 332 332 332 332 332 332 332 333 332 332 333 333 333 333 333 334
310 311 312 313 314 313 312 313 311 310 310 314 316 312 314 321 328 340 342 339 339 339 338 339 339 339 338 338 338 338 337 336 337 338 339 339 335 333 333 334 336 336 336 337 337 338 338 338 338 338 338 337 338 337 337 337 337 337 336 336 336 336 335 334 333 333 332 332 332 331 331 330 329 329 329 328 328 329 330 330 330 330 331 331 331 331 331 332 332 332 332 332 332 332 333 333 333
310 312 311 312 313 312 312 312 310 311 312 315 316 312 313 316 324 339 341 338 339 339 338 338 339 340 339 338 339 338 337 337 337 337 339 339 336 334 334 333 334 335 336 336 337 338 338 337 336 336 336 336 337 337 336 336 336 335 335 335 335 334 333 333 332 332 331 331 331 330 330 328 327 327 327 327 327 327 328 328 329 329 329 330 330 330 330 331 331 331 331 331 331 332 332 333 332
311 312 312 312 312 312 312 312 310 312 313 311 312 312 311 311 322 338 339 337 339 340 338 338 338 339 339 339 340 338 338 338 336 336 339 339 336 334 333 333 332 332 335 335 335 336 335 335 335 335 335 335 335 335 335 335 335 334 334 333 333 332 332 331 331 331 331 331 330 329 328 327 326 325 325 325 325 325 326 326 327 327 326 327 327 328 328 329 329 330 330 330 330 331 332 332 332
312 312 312 312 313 313 312 312 310 311 313 310 310 312 309 309 322 335 336 333 336 339 338 338 338 338 339 339 340 339 338 338 336 337 339 337 334 332 332 332 330 330 332 333 334 334 334 334 333 333 333 333 333 333 332 332 332 332 332 332 332 331 331 330 330 331 330 330 329 327 326 325 324 324 323 323 324 324 324 324 324 324 324 324 324 325 325 326 326 327 328 328 329 330 330 331 332
311 311 311 312 312 313 313 313 311 311 312 311 309 311 310 309 318 329 332 331 333 336 338 338 337 337 337 338 339 338 338 338 338 337 337 334 331 330 330 329 328 328 330 331 332 332 332 332 331 331 331 331 331 330 329 330 330 330 330 330 330 330 330 330 329 329 328 328 326 325 324 323 323 323 322 321 321 322 322 322 321 321 322 322 322 322 323 323 323 324 325 326 327 328 329 329 330
310 310 310 311 311 312 312 312 312 312 312 310 309 312 310 308 314 324 329 330 331 333 337 338 337 338 338 337 338 338 337 339 338 336 333 331 330 329 328 327 326 327 327 329 330 330 331 330 329 328 327 327 327 327 327 328 328 328 328 327 327 327 327 327 327 326 325 325 323 322 322 322 321 321 320 320 319 319 320 320 319 319 319 320 319 319 320 320 321 322 323 323 324 325 326 326 327
310 309 309 310 310 312 313 312 313 312 311 310 310 312 311 309 314 324 328 329 330 331 334 336 337 338 338 337 339 339 339 339 338 335 331 329 329 328 327 326 327 327 327 328 329 329 329 328 328 326 325 325 325 326 326 326 326 325 325 325 324 324 324 324 323 323 322 322 321 320 320 320 319 319 318 318 317 318 318 318 317 317 317 317 317 317 318 318 318 319 321 321 321 322 322 323 324
309 308 308 310 311 314 315 313 312 312 311 312 311 312 311 309 314 324 328 327 328 329 331 335 337 338 337 338 339 340 338 337 336 333 329 328 328 327 326 327 327 327 327 327 327 328 327 327 326 325 324 324 323 324 324 323 323 322 322 322 321 321 321 320 320 319 319 319 318 318 318 318 318 317 317 316 316 316 317 316 315 315 315 315 315 315 315 316 316 317 318 318 319 319 320 320 321
309 309 309 309 310 313 314 312 312 311 311 313 313 312 310 310 318 328 329 327 327 328 331 335 337 337 336 338 340 338 335 334 334 331 328 327 329 328 327 326 326 326 326 326 326 326 326 325 324 324 323 322 322 322 322 321 320 319 319 319 318 318 318 318 317 316 316 317 317 316 316 316 316 316 316 315 315 315 315 315 314 314 313 313 313 313 313 313 313 314 315 316 316 316 316 317 318
309 310 309 309 310 311 312 313 314 312 312 314 313 313 315 319 326 334 334 333 330 328 333 336 336 337 338 339 339 334 331 332 333 330 327 328 330 328 327 326 325 325 325 325 325 325 324 324 323 322 321 321 320 320 319 318 318 317 316 316 316 316 316 316 315 315 315 315 315 315 314 314 314 314 314 314 313 313 313 313 313 312 311 311 311 310 310 311 311 312 313 313 313 313 313 314 316
309 309 308 310 312 312 311 314 316 313 314 316 311 313 321 325 329 333 335 334 332 331 334 335 335 338 339 339 336 332 331 332 331 330 328 329 329 328 326 326 325 325 325 324 324 323 323 322 321 321 320 319 318 317 317 316 316 315 314 314 314 314 314 314 314 313 314 313 313 313 313 313 313 313 313 312 312 312 311 311 310 309 309 309 309 309 309 309 309 310 310 310 311 310 311 312 313
309 308 309 311 312 313 312 312 314 313 314 315 311 313 318 319 325 333 334 333 334 334 335 335 335 339 339 337 334 332 332 331 329 329 329 330 329 327 326 325 324 324 323 323 322 322 321 321 320 319 318 318 317 316 315 314 314 313 313 312 312 312 312 312 312 312 312 312 312 312 312 311 311 311 311 310 310 310 309 309 308 308 308 308 308 308 308 308 309 309 309 309 309 309 310 311 311
310 309 310 311 311 312 312 312 313 313 313 314 313 313 314 315 323 332 332 332 334 335 335 335 335 338 338 336 333 331 331 329 329 330 329 329 327 326 325 324 323 322 321 321 320 320 320 319 319 318 317 316 315 315 314 313 313 312 312 312 311 311 311 311 311 311 311 311 310 310 310 310 310 310 309 309 309 308 308 308 307 308 308 308 308 307 307 308 308 308 308 309 309 309 309 310 310
310 311 310 310 311 310 311 312 312 313 313 313 313 314 314 316 324 330 330 332 334 334 336 335 334 336 337 335 332 331 330 329 329 329 328 327 327 326 325 323 322 321 320 319 319 319 318 318 317 317 316 315 314 313 313 312 312 311 311 311 311 310 310 310 310 310 310 309 309 309 309 309 309 309 308 308 307 307 307 307 307 307 307 307 307 307 307 307 307 307 308 308 308 308 309 309 310
309 310 309 309 310 310 310 310 310 311 311 311 314 317 316 317 324 328 329 333 334 334 336 335 334 336 336 334 331 330 329 328 329 328 327 327 327 325 324 322 321 320 319 318 318 318 317 317 317 316 316 315 314 313 312 311 311 310 310 310 310 310 310 309 309 309 309 308 308 308 308 308 308 308 307 307 306 306 306 306 306 306 306 306 307 306 307 307 307 306 307 307 307 308 308 309 309
310 309 309 309 310 310 310 310 309 309 310 311 312 314 316 321 325 323 325 333 335 334 336 335 334 336 335 332 329 328 327 327 328 327 325 326 326 324 322 321 320 319 318 318 317 317 317 317 316 316 315 314 313 312 311 310 310 310 310 310 309 309 309 309 309 308 308 308 308 308 308 308 307 307 306 306 306 306 306 306 306 306 306 306 306 306 306 306 306 306 306 306 306 307 308 308 309
Wind_Speed
5 4 3 3 3 6 6 4 5 4 4 8 8 8 7 3 3 8 7 5 5 1 2 3 2 2 2 3 3 1 10 7 4 2 1 5 10 17 19 21 25 25 23 23 23 20 19 19 16 14 12 14 19 19 16 14 14 15 15 16 17 17 17 17 18 18 18 17 17 17 16 16 16 16 15 15 15 15 15 14 13 14 14 14 14 13 13 13 13 13 13 14 14 14 14 14 12
4 3 2 2 3 6 3 1 7 6 7 9 8 9 9 4 4 10 8 5 4 3 2 2 2 3 2 5 3 2 6 10 9 6 6 11 15 16 20 23 25 25 24 23 23 20 19 19 17 14 12 14 19 20 18 15 14 14 15 16 17 17 17 17 18 18 18 17 17 17 16 16 16 15 15 15 14 14 14 14 13 13 14 14 13 13 12 12 12 12 12 12 13 13 12 11 10
2 3 3 4 4 4 2 3 7 8 9 9 8 9 9 8 8 7 3 3 2 2 1 3 3 3 3 5 3 2 3 7 10 10 8 14 14 16 22 24 24 25 24 22 22 20 19 19 17 14 12 14 18 20 18 16 15 15 16 17 17 17 17 18 18 18 18 17 17 16 17 16 16 15 14 14 14 14 14 13 13 13 13 13 12 12 11 11 11 11 11 11 11 10 9 9 8
2 3 4 6 5 4 5 5 7 8 10 9 8 9 9 8 6 2 2 1 3 1 3 5 4 2 4 4 1 1 5 6 8 9 8 13 15 21 25 25 25 23 22 22 21 19 19 20 18 14 13 15 18 20 18 16 16 15 16 17 17 17 18 18 18 18 18 17 16 16 16 16 16 15 14 14 14 14 13 13 12 12 11 11 11 11 11 10 10 10 10 10 9 8 8 7 7
3 4 5 6 5 3 5 5 6 8 10 9 9 8 6 5 1 4 3 3 2 3 3 5 3 3 1 3 3 1 6 6 6 8 10 14 19 25 25 24 24 22 21 21 21 19 19 21 18 15 14 15 18 20 18 16 16 16 16 17 17 17 18 18 18 18 17 16 16 16 16 16 15 14 14 13 13 12 11 11 10 9 9 10 11 10 10 9 9 10 9 9 8 8 8 8 7
4 5 5 6 3 2 5 7 8 9 11 11 11 8 3 3 2 3 3 2 2 3 3 6 3 4 4 4 5 3 4 4 7 9 12 18 22 25 24 24 23 22 21 20 20 18 20 21 18 16 14 16 19 19 19 17 16 16 16 17 17 18 18 18 18 17 17 16 16 16 16 15 15 14 13 12 11 10 8 8 7 7 7 9 10 9 8 8 9 9 8 7 7 7 8 8 7
6 6 5 6 3 2 8 9 10 10 11 12 12 9 1 4 4 2 3 3 4 4 4 6 4 4 4 5 4 6 2 3 7 10 15 21 23 24 24 23 22 22 21 19 19 18 21 22 19 17 15 16 19 19 19 17 16 17 16 16 17 17 17 17 17 17 16 16 16 15 15 15 14 13 11 10 9 8 7 7 7 7 7 7 8 8 7 7 8 8 7 7 7 7 7 7 8
6 6 3 5 5 5 9 10 11 10 7 6 8 9 3 2 1 2 4 5 4 3 4 5 7 6 4 4 2 4 3 4 8 14 19 23 24 23 22 22 22 21 20 19 19 19 21 21 20 18 16 17 18 19 19 17 16 17 16 16 17 17 17 17 16 16 16 15 15 15 14 14 13 11 9 8 8 8 7 7 7 7 6 6 7 7 7 7 7 7 7 7 7 7 7 8 8
8 6 2 5 8 6 9 10 10 11 8 6 7 8 5 3 4 6 8 8 5 4 6 6 7 7 6 6 3 5 5 8 13 19 21 23 24 22 22 21 22 21 20 19 19 19 19 20 20 18 17 17 18 19 19 17 16 16 16 16 17 17 16 16 16 16 16 15 15 14 13 13 12 11 9 8 8 8 7 7 6 5 5 6 5 5 5 6 6 8 7 6 7 6 7 8 8
7 6 4 6 8 8 9 9 9 9 10 8 8 7 6 5 7 9 11 12 9 7 7 6 7 6 8 8 6 5 7 13 17 20 22 23 23 22 21 20 21 21 21 20 19 19 18 19 19 18 18 17 18 18 19 18 17 17 17 17 17 17 16 16 16 15 15 14 14 14 13 12 12 11 10 9 8 8 8 8 6 5 5 5 5 5 6 6 8 9 7 7 7 6 7 7 7
6 5 4 6 8 9 9 9 9 8 7 7 6 7 6 6 8 9 10 12 11 8 7 7 8 8 8 7 5 3 9 17 19 20 22 22 21 21 20 20 20 20 21 20 20 19 18 18 17 17 17 17 18 18 19 18 18 17 17 18 17 16 16 16 15 15 15 14 14 13 12 11 11 10 9 9 8 8 8 8 7 6 6 6 7 7 8 8 9 9 8 7 6 6 6 7 6
6 6 5 7 8 8 8 8 7 6 6 7 7 5 2 3 6 8 10 12 11 10 11 10 8 10 9 7 5 5 13 17 19 21 21 20 20 20 19 19 19 19 20 20 20 19 19 18 17 16 16 17 18 19 19 18 18 18 17 18 17 16 16 16 15 14 14 13 13 12 11 11 10 10 9 9 9 9 8 8 7 7 6 6 7 8 9 8 10 11 9 8 6 6 6 6 5
7 6 7 8 7 8 8 7 5 4 6 6 5 5 3 3 6 8 9 11 13 12 13 12 9 11 8 8 7 6 14 18 19 21 20 20 19 19 19 19 19 19 20 20 19 20 19 18 17 15 15 16 17 19 19 18 17 17 18 17 16 16 16 15 14 14 13 13 13 12 11 11 10 10 9 9 9 9 8 8 8 7 6 6 7 9 9 9 11 11 9 8 6 6 6 5 4
7 5 6 7 6 7 7 7 5 5 5 4 5 6 2 5 5 7 8 10 13 12 11 12 11 10 8 8 6 7 13 19 20 21 20 19 19 19 19 19 19 20 20 19 19 20 19 18 17 16 15 15 16 16 16 16 16 16 17 16 15 15 15 14 14 13 13 12 11 11 10 10 9 8 8 8 9 9 9 9 8 7 7 6 7 9 9 10 11 11 9 7 6 6 6 5 5
6 4 5 7 6 7 7 8 5 6 4 9 7 2 3 4 4 7 9 11 11 9 7 11 12 8 9 11 9 10 16 21 21 20 20 19 19 19 19 20 20 20 19 18 18 19 18 18 17 16 15 15 15 13 12 12 15 16 15 15 15 15 14 13 13 13 12 11 10 10 9 7 6 6 6 6 8 9 9 9 9 8 7 7 7 8 9 9 11 10 8 7 6 6 6 6 5
5 4 5 7 7 8 7 7 6 6 4 10 5 1 4 2 3 6 6 8 5 8 6 11 12 4 7 13 14 19 22 23 22 21 22 21 20 19 19 20 20 19 18 18 17 17 17 18 17 17 16 15 14 13 12 11 13 14 14 13 14 14 14 13 13 12 11 10 9 9 7 5 6 6 5 6 7 8 8 7 8 9 8 8 7 6 7 7 9 9 8 6 5 5 5 6 6
5 5 7 7 8 8 6 8 6 3 6 10 4 2 5 0 4 3 2 7 6 10 9 8 8 3 3 11 22 27 26 25 24 23 23 22 22 20 19 19 19 19 18 18 17 16 17 17 16 16 16 14 13 13 13 12 11 12 12 12 13 14 13 13 12 11 10 9 8 8 6 5 6 5 5 6 6 5 6 7 7 8 8 8 7 6 5 6 6 7 7 6 5 4 4 5 6
6 6 8 7 8 7 5 7 4 1 6 7 2 3 5 3 2 1 4 10 9 11 9 7 7 4 7 18 28 28 26 26 26 24 23 21 20 19 18 19 19 18 18 18 16 16 16 16 15 15 15 14 13 13 13 12 11 11 11 12 12 12 12 11 10 9 9 8 7 7 6 5 4 4 4 4 4 3 4 5 6 5 6 7 6 6 5 5 5 5 5 6 5 4 3 4 5
8 6 7 8 7 2 2 4 3 2 2 2 1 2 5 4 1 1 5 11 12 12 11 10 10 11 14 21 27 27 26 26 25 23 21 19 18 18 18 18 18 18 18 17 16 16 14 15 15 15 15 14 12 12 13 13 12 11 11 12 12 11 11 9 9 9 8 8 7 6 5 4 5 4 4 4 4 4 2 3 4 3 4 5 5 5 4 4 5 6 5 5 5 3 3 4 5
9 7 7 8 5 1 2 4 2 2 2 3 2 2 4 3 1 2 6 10 13 13 12 13 13 16 17 20 23 27 26 25 24 22 20 19 18 18 18 18 18 18 17 17 16 15 14 14 14 14 14 13 12 12 12 12 12 11 11 11 11 11 11 10 9 8 7 7 7 6 5 5 5 4 3 4 4 3 2 2 2 2 3 3 4 4 3 2 3 5 6 6 5 4 4 5 5
8 8 8 5 2 3 5 5 4 3 3 4 4 4 5 2 3 6 6 10 12 12 13 14 15 19 20 20 22 25 24 24 23 21 20 18 17 17 17 17 16 17 17 16 16 15 14 14 14 13 13 12 12 12 11 11 11 11 10 11 11 10 10 9 8 8 7 6 6 6 5 5 5 4 4 4 4 3 3 2 2 3 3 3 2 3 3 2 3 4 6 7 7 7 7 6 5
7 9 11 4 1 5 4 5 4 2 3 5 5 6 5 4 6 7 8 10 8 10 12 11 14 18 20 21 22 23 22 21 21 20 19 19 18 17 16 16 15 15 16 15 15 15 14 13 13 13 12 12 11 11 11 11 11 10 10 10 11 10 10 9 9 8 7 7 7 6 6 6 5 5 5 4 4 4 4 4 3 4 4 3 3 3 4 3 4 5 5 7 8 8 8 7 7
8 9 12 7 4 4 3 5 3 2 5 6 6 6 6 8 9 6 11 11 2 5 10 10 13 18 20 21 20 21 20 19 19 19 19 19 19 18 17 17 16 16 15 15 15 15 14 13 13 13 12 12 10 10 10 10 10 10 10 10 10 10 10 9 8 8 7 7 7 7 7 6 5 4 4 4 3 3 3 3 3 3 3 3 3 3 4 4 4 4 5 6 7 8 9 8 8
11 9 10 10 8 6 4 3 3 4 7 7 7 7 7 10 7 4 10 8 2 4 10 10 14 18 20 20 18 19 19 18 19 20 19 19 18 18 18 17 17 16 15 15 15 14 14 14 13 12 12 11 10 10 10 10 10 10 11 10 10 10 10 9 8 8 8 8 7 6 5 5 4 3 3 2 2 2 1 1 1 1 2 2 2 2 3 4 4 5 5 5 6 7 9 9 9
14 11 7 7 8 8 8 6 6 7 7 7 8 9 9 8 6 5 8 7 4 7 11 13 15 17 18 19 18 18 17 18 19 20 19 18 18 17 17 17 17 16 16 16 15 14 14 14 13 12 12 11 10 10 10 10 10 10 10 10 10 9 9 8 8 8 7 7 7 5 4 4 3 2 1 1 1 1 1 0 1 1 1 2 2 2 2 3 4 5 6 6 6 6 8 9 9
13 15 8 6 8 7 8 8 9 9 6 6 8 10 8 4 5 6 7 6 6 8 12 16 17 18 18 17 17 17 17 18 18 19 18 17 18 17 16 16 16 16 16 16 15 15 14 14 13 12 11 11 11 11 10 10 11 11 10 11 11 10 9 8 8 8 7 7 6 5 4 3 3 1 1 0 0 0 1 1 1 1 2 2 3 3 3 3 4 4 5 6 7 6 7 8 9
7 15 12 9 8 6 7 7 8 8 7 8 9 10 6 2 5 6 7 7 7 10 12 14 16 18 17 16 17 16 17 17 17 17 17 17 17 17 16 16 16 16 16 15 14 15 14 14 13 12 11 11 11 11 11 11 11 11 11 11 11 10 9 8 8 6 6 6 5 4 4 3 3 2 1 0 0 0 1 1 1 2 2 2 3 3 3 4 4 5 5 6 7 7 8 7 8
3 10 12 11 11 9 9 9 9 7 7 8 9 10 6 5 6 4 8 8 8 11 13 13 15 16 17 18 17 15 15 17 17 15 15 15 15 16 16 16 17 16 15 15 14 14 14 14 13 12 12 11 12 12 12 12 12 11 11 11 10 9 8 7 6 5 4 4 4 3 3 3 2 2 2 1 1 0 0 0 1 1 1 1 2 3 3 4 4 5 5 6 7 8 9 9 9
5 7 8 11 11 11 13 12 11 10 7 6 7 8 8 10 7 4 9 9 9 12 14 14 14 15 16 17 16 14 15 17 17 15 14 14 13 15 15 14 16 15 15 15 14 15 15 14 14 13 13 13 13 13 13 13 13 12 11 10 9 8 7 6 5 4 4 4 3 3 3 3 3 3 3 2 2 2 1 1 0 0 1 1 2 3 3 4 4 5 5 6 7 8 9 10 10
8 8 8 8 8 10 14 13 12 12 8 6 7 7 9 11 7 7 8 9 11 12 13 15 15 15 16 16 14 13 13 14 13 9 10 9 7 10 14 14 14 14 14 15 15 16 15 15 15 15 15 14 14 14 13 12 11 11 9 9 8 7 6 5 5 4 4 4 4 4 4 4 4 3 3 2 2 2 1 1 0 1 1 1 2 2 3 3 4 5 5 6 7 8 10 11 11
9 10 8 7 7 7 11 13 13 12 8 8 10 8 8 10 9 8 8 10 14 14 14 16 15 14 15 14 13 12 11 13 13 12 14 16 11 9 12 13 14 12 14 15 16 16 16 16 15 15 15 15 14 13 12 11 10 10 9 7 7 6 6 5 5 4 4 4 4 4 4 4 4 3 3 2 2 1 1 0 0 1 2 2 3 2 3 4 5 5 4 6 7 8 9 10 11
9 9 8 8 7 5 10 12 14 14 10 11 12 7 5 9 9 9 9 11 13 13 14 16 16 17 16 14 13 12 12 14 15 14 15 20 18 15 14 13 13 12 13 15 16 16 15 15 14 14 14 14 13 12 11 11 10 10 8 7 6 6 6 6 5 5 5 4 5 5 4 4 3 3 2 2 1 1 0 0 0 1 2 2 3 4 4 5 6 6 6 7 8 8 9 10 10
10 9 8 9 10 6 8 10 14 15 11 12 14 9 4 7 9 11 11 9 11 12 14 16 13 12 12 12 12 11 11 12 14 14 14 17 19 18 16 15 14 13 13 15 16 16 15 14 14 15 14 13 12 12 12 11 10 9 8 7 6 6 7 7 6 5 5 5 5 5 4 3 3 3 2 1 1 1 0 1 1 2 2 3 4 5 5 6 7 8 8 8 9 10 10 10 11
9 10 8 8 12 9 6 9 12 14 11 12 15 11 1 7 11 12 11 9 10 9 10 11 10 11 9 6 7 7 5 8 10 12 13 15 17 18 17 16 15 14 15 15 15 16 17 16 16 16 15 14 13 12 12 11 10 8 8 8 7 7 7 7 6 5 5 5 5 5 4 3 3 2 2 1 0 0 1 1 2 2 3 3 4 5 6 7 7 8 9 9 9 11 12 12 12
11 11 8 7 10 11 8 7 10 14 12 12 15 12 3 7 11 11 11 9 6 4 6 7 11 14 12 7 7 5 2 6 8 10 13 13 14 17 18 17 16 16 18 17 15 15 17 18 17 16 16 15 13 13 12 10 9 8 8 8 7 7 7 7 6 5 5 4 4 4 3 3 2 1 1 0 1 1 2 2 2 3 3 4 5 6 6 7 7 8 9 10 10 11 11 12 12
12 13 11 9 9 11 9 6 9 14 13 12 14 13 8 9 10 10 11 9 10 13 13 10 9 8 8 10 8 5 4 4 5 3 5 9 12 15 16 16 15 17 19 19 16 15 16 17 16 16 16 15 14 13 11 9 9 9 9 9 8 7 7 7 6 5 5 5 5 4 3 3 2 1 1 1 1 2 2 3 3 4 4 5 6 7 7 8 8 9 9 10 11 11 10 10 10
11 13 12 11 9 10 11 8 8 10 11 11 14 13 10 10 10 10 11 13 12 11 14 11 8 4 5 10 10 6 4 5 7 4 2 5 8 11 13 14 15 15 15 16 17 16 15 15 16 16 15 14 13 12 10 9 9 9 9 9 8 7 7 7 7 6 6 6 6 5 4 4 3 2 2 2 2 3 3 4 4 5 5 6 7 7 8 9 9 9 9 9 10 10 9 8 8
10 11 10 10 9 8 11 10 8 8 10 10 13 12 11 11 9 10 11 13 10 8 13 13 13 10 7 9 11 10 7 5 8 9 8 7 6 8 10 11 15 16 15 15 18 18 16 15 15 15 15 13 12 11 10 10 9 8 8 8 7 7 6 7 8 8 8 7 7 6 6 5 5 4 4 3 3 4 4 5 6 6 7 7 8 8 9 9 9 9 9 9 9 9 9 8 8
8 9 9 9 9 7 9 9 8 7 8 8 13 12 9 8 5 8 11 11 9 7 9 13 15 13 9 10 13 13 11 8 8 8 10 10 9 9 7 5 10 15 15 14 16 17 16 16 15 15 14 13 12 11 11 11 10 8 8 8 8 7 7 8 9 9 8 7 7 6 6 6 6 6 6 5 4 5 5 6 7 7 7 7 8 9 9 9 9 9 9 10 10 9 8 8 7
7 8 9 8 11 9 6 9 10 8 6 5 12 12 7 8 6 7 10 10 9 6 7 11 14 14 11 12 14 12 10 10 10 9 9 11 11 8 3 2 5 11 13 14 14 15 15 16 15 14 13 12 12 12 11 11 11 10 9 9 9 9 8 8 9 8 7 7 6 6 6 7 6 6 6 6 6 6 6 6 7 8 8 8 9 9 10 10 9 9 9 9 11 11 9 8 7
9 10 10 8 12 10 3 9 12 8 5 5 11 11 6 8 8 7 8 9 10 9 9 9 11 13 11 11 12 10 8 9 11 12 11 13 13 12 10 8 9 10 13 14 16 16 16 16 14 14 13 12 12 13 12 11 11 11 11 10 10 10 9 7 7 6 5 5 5 5 5 6 6 6 6 6 6 6 6 6 7 7 8 8 9 10 10 11 10 9 8 8 9 10 10 10 9
9 10 10 7 11 10 5 10 12 8 7 9 12 10 7 11 11 9 8 9 10 10 11 11 11 13 12 11 12 10 9 9 9 12 14 14 15 15 13 12 12 13 13 14 16 16 15 14 14 14 13 12 12 12 11 10 10 11 11 9 7 7 7 5 4 4 4 4 4 4 5 6 6 6 6 6 6 5 6 6 6 7 7 8 8 9 10 11 11 10 9 8 9 9 10 11 10
7 10 9 5 8 11 8 10 11 8 7 9 12 10 6 10 12 11 10 11 12 10 11 12 11 12 12 12 12 11 11 11 10 12 14 15 16 16 11 8 8 12 12 13 15 14 13 13 13 13 12 11 11 11 10 10 10 9 8 6 6 6 5 4 4 4 4 3 3 3 5 5 6 7 6 6 6 6 6 6 6 7 7 8 8 8 9 11 12 12 10 9 9 9 9 11 11
6 11 11 6 6 8 8 8 10 7 3 6 11 11 6 7 11 14 14 13 13 12 11 11 11 12 13 13 13 13 13 12 11 12 14 15 18 18 14 10 9 10 12 14 14 14 14 13 14 14 13 13 11 10 10 9 9 9 8 7 7 7 6 6 5 3 2 2 3 4 5 5 5 7 7 6 7 7 7 6 6 7 7 7 7 8 9 10 11 12 12 11 11 11 10 11 12
5 11 12 8 6 6 6 7 8 5 2 5 12 11 8 6 9 13 14 15 14 14 13 12 13 14 14 15 14 15 14 12 11 13 14 15 17 18 16 14 11 9 11 15 16 16 16 16 16 16 15 14 12 12 11 11 10 9 9 8 8 6 5 4 2 1 1 2 3 4 4 5 5 6 7 7 7 8 8 8 7 7 8 8 8 9 9 10 11 11 12 12 12 12 11 11 13
6 11 10 7 6 5 5 7 7 5 6 10 13 14 10 7 9 11 12 14 15 14 13 13 13 15 15 15 15 15 14 12 11 12 13 17 19 18 16 15 14 11 12 17 19 18 17 17 17 16 15 14 13 13 14 13 11 9 7 7 5 4 2 1 1 2 2 2 4 5 4 5 5 5 6 7 7 8 8 8 8 8 8 8 9 9 9 10 11 11 11 11 12 12 13 12 12
8 10 10 7 7 6 5 6 5 5 8 12 13 15 13 9 9 11 11 13 15 13 12 13 14 15 16 15 14 14 13 12 12 12 13 19 21 19 16 17 18 16 13 16 18 18 17 16 17 17 14 13 12 14 14 12 10 7 6 5 3 2 2 1 2 2 3 3 4 5 4 5 5 6 6 6 7 8 8 8 9 8 8 9 10 10 10 11 12 11 12 11 11 12 13 14 13
10 10 10 8 7 5 5 6 5 7 9 12 14 14 13 11 7 10 12 15 17 15 14 16 17 17 17 15 14 14 13 13 12 11 13 18 19 18 18 19 21 19 15 15 16 16 15 14 16 17 14 13 13 13 11 9 7 6 5 4 4 4 3 2 3 3 3 4 5 4 4 5 5 6 7 7 8 9 8 8 9 9 9 10 11 11 11 11 12 11 11 11 11 11 12 13 14
11 11 11 10 8 6 8 8 8 9 7 6 11 12 11 10 6 8 13 15 18 16 15 18 19 19 18 16 14 13 12 12 12 12 13 15 16 18 19 19 19 18 15 15 15 15 15 13 15 17 15 13 12 10 9 7 7 7 6 5 5 4 4 4 4 4 4 4 4 5 5 5 5 6 7 8 9 9 9 9 10 10 10 11 12 12 12 12 12 12 11 11 12 12 12 13 14
13 13 12 11 9 8 10 9 8 10 5 3 8 9 8 8 6 9 13 15 17 17 16 16 18 18 18 16 14 13 12 11 12 14 14 14 15 18 21 20 18 15 14 15 15 15 15 14 14 17 15 11 10 9 8 8 8 8 7 6 5 5 5 5 5 5 5 5 5 5 5 5 6 7 8 8 9 9 9 9 9 10 10 11 12 12 12 12 12 12 11 12 12 12 12 13 14
13 12 12 11 9 8 8 8 8 10 8 7 8 7 7 7 5 6 8 10 13 15 13 11 13 14 13 13 13 14 14 13 13 15 15 17 21 22 22 22 19 17 15 16 16 15 14 13 13 14 13 11 11 10 9 9 9 8 7 7 6 5 5 5 5 6 5 6 5 6 6 6 6 7 7 8 9 10 10 9 9 10 11 11 12 12 13 12 13 12 11 12 12 12 13 14 14
12 11 11 11 10 7 4 1 1 4 6 7 8 5 2 2 3 4 4 6 10 14 13 12 13 13 12 13 13 13 13 13 14 16 15 18 23 24 22 22 20 18 17 16 16 14 14 14 13 13 13 12 11 11 10 9 9 8 8 7 6 6 5 6 6 6 6 6 7 7 7 7 7 7 7 8 9 9 9 10 10 11 11 12 12 13 13 13 13 12 12 12 13 13 13 14 13
9 11 12 11 11 8 4 2 3 0 4 6 8 7 4 4 4 5 7 8 11 14 14 14 15 16 15 13 13 13 13 14 14 16 16 19 23 22 22 23 21 19 18 17 16 15 14 14 14 14 13 12 11 11 10 10 9 9 8 7 7 7 7 7 8 8 8 8 8 8 8 8 8 8 8 8 9 9 10 10 11 11 12 12 13 13 14 14 14 13 12 13 13 13 13 13 13
8 10 11 9 8 7 5 5 4 5 7 5 9 11 9 8 6 7 11 12 13 14 14 16 17 17 15 13 13 14 15 15 16 18 19 20 22 21 21 23 22 20 19 19 17 16 15 14 14 14 13 11 11 10 9 9 9 9 8 8 8 9 9 10 10 10 10 9 9 9 9 9 9 9 9 9 10 10 11 11 11 11 11 12 13 13 14 14 14 13 13 12 13 14 14 13 13
9 8 10 9 7 7 7 7 6 8 9 6 9 12 10 8 7 10 14 15 14 15 15 17 19 19 15 13 15 16 16 16 16 17 17 17 21 22 23 25 24 22 21 21 20 18 16 15 14 13 12 11 10 9 9 9 9 9 9 9 10 10 11 11 11 11 11 11 10 10 10 10 10 10 11 10 11 11 11 11 11 11 12 13 13 13 13 14 14 13 13 13 13 14 14 14 14
8 9 11 9 7 8 8 7 6 7 8 7 8 10 8 8 9 13 16 17 17 17 16 17 20 20 17 15 15 17 17 16 16 16 15 17 21 22 23 24 24 23 22 23 22 20 18 16 15 14 12 12 11 10 10 10 11 11 11 11 11 11 11 11 11 11 11 11 10 10 10 10 10 11 11 11 11 11 11 11 11 12 13 13 14 14 13 13 14 14 13 13 13 15 15 14 15
10 10 12 10 8 7 7 8 7 6 7 7 7 7 6 6 9 13 16 17 17 18 18 17 18 19 17 16 17 16 16 15 16 15 15 18 21 22 22 23 24 23 21 23 22 20 17 16 15 14 13 12 11 11 12 12 13 13 12 12 12 12 11 10 11 11 12 12 11 10 10 10 11 12 11 11 11 11 11 11 12 13 13 14 14 14 14 13 14 14 13 13 14 15 15 15 15
12 9 10 11 9 8 8 10 9 8 7 6 7 7 4 5 8 12 15 16 17 20 19 16 16 18 17 16 17 17 16 16 16 16 16 19 21 22 23 24 24 22 21 22 21 19 17 15 14 14 14 14 13 12 13 13 13 13 13 12 12 11 11 10 11 12 12 12 12 11 11 11 12 12 12 12 11 11 11 12 13 13 13 14 15 14 14 14 14 15 14 14 14 15 15 16 16
Wind_Direction
334 324 325 312 302 285 258 264 280 252 255 268 269 266 266 261 282 285 279 273 284 72 43 309 255 215 230 311 227 52 24 18 13 360 84 101 140 147 146 144 148 148 143 139 138 140 143 145 142 139 138 144 151 148 139 137 137 136 136 134 134 130 130 129 129 128 127 126 124 123 121 120 118 116 114 112 110 108 108 107 107 107 105 103 102 103 103 104 104 105 105 106 109 109 106 105 101
317 304 303 283 259 263 257 242 279 270 258 265 260 261 268 249 255 277 285 296 316 37 348 276 195 186 267 321 258 202 52 45 55 75 94 124 135 140 145 145 149 148 142 139 137 138 141 145 143 139 138 142 146 144 139 139 139 138 137 135 134 130 130 129 128 128 126 126 125 125 123 120 117 114 113 111 109 108 108 108 108 107 108 107 107 106 102 102 101 101 103 106 109 107 104 102 98
277 282 257 235 225 247 257 221 259 270 263 266 263 263 266 259 270 289 323 317 5 48 219 162 173 167 229 239 220 233 96 72 84 94 117 140 137 142 146 146 149 146 141 138 137 139 142 146 145 138 137 142 143 142 140 141 143 140 138 135 132 131 130 128 126 128 128 127 127 127 124 120 116 113 112 110 109 107 105 104 104 104 106 106 105 103 97 96 96 96 98 101 102 102 102 97 93
210 246 242 236 224 224 235 231 248 263 260 263 268 270 277 282 296 13 71 65 99 144 191 176 178 121 271 236 145 31 101 87 91 105 135 146 142 144 145 146 148 143 139 138 138 139 145 149 145 140 137 142 143 142 141 142 143 137 135 133 131 131 130 129 129 129 129 128 127 126 123 120 117 113 111 110 110 109 106 105 104 106 109 109 107 104 99 97 97 99 100 99 100 103 99 89 80
207 229 227 240 243 237 237 242 249 251 254 261 268 274 303 318 360 95 117 129 150 215 192 199 193 127 236 23 13 269 102 91 109 126 135 131 138 144 145 146 146 143 139 138 139 139 148 151 145 143 137 142 144 142 142 141 142 138 135 134 134 133 132 133 131 131 130 128 127 125 123 121 118 115 112 110 109 108 108 108 107 111 118 121 119 113 110 110 107 104 103 100 103 101 90 75 60
204 203 205 234 262 305 245 239 243 244 250 255 265 275 353 24 95 116 143 148 207 231 202 212 207 160 164 66 30 31 71 111 130 138 135 134 142 145 146 147 146 143 140 139 139 140 150 152 146 143 137 143 144 142 142 141 142 140 138 139 138 137 136 135 133 132 131 130 127 126 124 121 119 115 112 109 107 104 102 100 97 103 117 131 129 117 114 120 117 112 109 106 100 90 76 59 48
213 201 186 214 221 235 240 240 244 248 248 245 257 269 353 72 89 127 188 187 192 180 210 219 191 176 141 121 93 54 62 139 132 144 138 139 143 145 147 147 145 143 140 140 139 143 152 151 147 143 140 143 144 142 141 141 142 141 142 142 140 138 138 136 134 133 131 131 128 127 126 122 119 115 111 108 105 98 94 91 90 95 104 128 134 124 125 130 126 120 117 109 97 83 67 51 47
217 226 193 219 218 202 235 242 243 251 245 232 252 265 277 72 60 258 229 218 208 177 216 208 201 210 133 151 152 72 138 140 132 139 136 140 143 145 148 147 145 144 142 140 140 146 152 150 147 144 142 142 141 141 141 142 142 143 144 142 141 139 139 138 135 135 134 132 130 127 123 120 118 113 106 105 105 102 103 104 107 112 118 131 141 141 146 148 136 122 119 107 94 82 64 49 50
206 222 205 232 231 215 234 241 240 246 240 233 246 253 262 268 270 260 247 237 230 241 236 199 211 220 140 146 124 103 142 134 134 137 139 143 145 147 148 151 148 146 144 142 142 145 149 149 148 146 143 141 139 140 141 142 143 144 143 144 144 140 141 140 137 138 136 134 132 126 120 116 112 104 96 94 101 107 105 102 102 111 132 142 152 160 164 163 140 125 125 112 98 80 59 49 55
201 216 218 226 234 231 233 238 238 238 240 247 252 250 257 256 251 246 245 243 234 240 233 194 217 210 140 136 120 115 136 137 139 139 144 145 146 150 149 152 150 148 147 144 144 143 146 148 148 146 143 140 138 139 141 142 144 145 146 148 145 142 143 141 141 139 137 136 132 125 120 114 107 100 93 89 94 102 97 89 79 75 103 122 135 143 143 145 135 133 133 115 99 76 56 51 65
203 203 230 228 226 235 234 238 235 230 231 241 249 247 258 251 246 240 236 242 240 236 216 197 211 185 144 132 116 118 140 143 145 141 146 148 147 150 150 151 151 150 148 147 146 144 145 146 146 145 142 140 139 139 140 143 147 149 150 150 146 145 144 143 143 139 139 137 131 126 121 115 107 102 97 89 85 91 95 90 75 64 72 100 119 124 127 131 135 141 135 118 100 76 55 53 74
217 188 208 228 226 234 239 246 238 232 226 232 238 214 208 230 232 233 231 233 229 226 212 202 188 167 155 136 120 146 154 149 145 143 146 149 149 149 150 150 152 152 149 149 147 145 145 145 145 145 144 142 140 139 141 147 150 153 153 151 149 148 146 145 144 141 141 138 133 128 123 117 109 103 94 85 81 85 95 90 79 68 58 86 116 123 129 135 138 141 135 122 105 79 59 58 81
227 200 204 226 237 242 242 251 241 251 244 231 219 155 140 243 232 233 233 230 222 216 206 197 177 169 160 124 127 156 158 151 145 146 147 150 151 149 151 150 152 152 149 150 149 148 146 145 145 147 147 142 141 142 146 150 151 154 154 152 151 150 149 147 145 144 143 139 134 128 123 118 109 100 89 77 75 80 91 92 85 73 59 78 110 122 128 135 138 140 136 126 110 88 70 68 89
223 212 222 230 238 245 243 247 233 244 240 159 128 130 187 261 253 247 236 227 217 209 198 186 181 179 153 122 145 171 158 151 148 149 148 149 150 148 149 149 151 152 152 153 153 152 150 148 147 149 149 141 140 141 146 152 153 156 156 155 153 151 150 149 149 147 143 140 134 130 123 113 105 96 84 72 71 79 86 88 90 81 67 77 108 123 130 136 141 143 137 127 112 93 80 79 99
222 214 232 240 235 235 230 236 235 244 213 126 118 103 260 253 252 249 230 226 207 191 189 172 186 192 166 164 168 169 157 150 151 150 148 146 146 146 146 147 149 151 154 155 155 155 155 152 148 150 149 143 142 141 142 149 154 156 157 157 156 152 151 151 150 147 144 140 136 133 123 111 104 87 76 74 73 82 87 82 83 84 80 82 102 129 138 141 145 146 140 130 114 96 85 86 106
223 222 222 239 238 231 214 212 222 238 169 122 125 342 283 219 204 245 231 243 194 160 191 176 186 212 186 179 157 154 153 148 151 148 146 144 143 143 143 146 148 150 155 156 157 158 157 155 151 150 149 148 143 142 143 144 152 153 150 152 153 152 149 150 148 146 143 138 139 134 122 113 102 82 84 90 73 78 94 94 84 81 83 84 97 129 147 151 150 150 146 136 116 98 90 92 108
210 223 222 232 232 231 206 197 205 219 134 128 125 9 307 139 156 244 213 236 205 169 193 177 178 230 206 150 140 148 149 147 151 149 148 147 144 146 147 150 150 153 158 158 159 158 156 155 151 147 146 146 140 141 143 143 148 145 141 143 149 154 149 147 147 145 142 140 141 132 123 115 100 90 103 100 78 76 94 101 94 89 89 87 97 122 155 170 164 160 156 146 131 109 93 100 113
196 213 222 226 229 230 207 196 191 156 135 135 103 31 327 345 145 199 179 204 193 170 176 162 156 143 118 125 135 145 147 150 154 154 155 153 150 152 152 155 157 157 158 158 159 156 154 153 147 144 144 142 139 141 142 143 145 141 141 142 148 157 153 147 145 148 148 146 144 134 131 127 116 111 111 107 106 116 106 102 102 101 104 97 99 114 149 179 185 182 173 161 148 125 100 123 136
204 215 219 229 238 218 148 195 187 207 157 91 43 38 333 335 30 221 200 192 179 174 170 163 147 124 124 130 139 145 149 154 157 159 159 158 157 157 157 158 161 159 159 157 154 152 152 152 147 146 144 140 141 142 139 141 144 143 144 146 149 155 156 155 152 154 150 144 147 143 137 135 132 129 139 149 141 142 141 121 114 115 123 116 111 111 128 166 189 197 198 191 170 148 137 173 174
213 222 224 232 240 127 164 213 214 237 294 310 309 348 308 304 341 279 224 192 185 188 172 168 157 141 144 142 144 149 153 157 159 163 162 162 159 157 159 160 163 163 160 155 149 148 150 153 149 145 142 139 143 142 139 141 145 146 145 150 154 153 155 159 157 155 148 140 144 142 137 135 131 132 145 140 128 140 155 132 126 137 146 138 130 126 134 153 177 202 213 211 201 200 204 207 196
210 217 231 239 222 217 200 202 216 239 287 294 297 298 283 281 285 273 234 199 197 197 179 178 166 151 153 151 153 156 156 160 163 167 166 164 158 157 160 160 163 160 159 153 146 148 150 152 147 142 142 144 148 144 142 145 146 147 146 149 152 153 155 158 157 156 153 148 146 141 135 134 132 131 130 124 125 145 152 157 161 156 168 184 174 163 184 189 175 199 213 213 210 212 214 213 210
217 215 235 255 234 228 184 177 207 238 267 276 279 282 303 309 273 261 232 212 206 194 179 179 164 153 157 158 158 158 160 164 165 168 167 162 158 156 155 158 158 152 156 151 143 146 147 149 145 143 147 149 150 147 144 144 146 147 148 151 149 148 152 152 152 153 153 149 146 142 140 140 138 131 126 129 133 143 151 158 168 167 176 194 203 197 201 207 199 204 208 211 214 217 218 213 212
224 217 226 226 222 224 152 164 190 236 260 267 279 297 317 290 270 259 231 220 210 172 165 165 161 154 159 161 160 162 163 164 163 166 164 159 159 157 155 158 156 151 154 149 143 143 145 150 148 148 151 149 148 146 145 143 146 147 144 148 148 145 148 148 146 147 147 144 145 146 148 146 137 131 128 132 135 144 151 155 166 169 175 180 195 214 220 221 222 221 216 217 221 223 222 218 216
225 225 214 213 220 217 192 189 207 243 263 272 288 296 286 274 276 266 227 207 117 161 158 152 155 153 160 164 164 165 163 160 161 163 162 160 159 156 157 159 155 153 154 150 148 147 150 153 151 152 151 149 147 144 145 144 144 145 142 143 147 148 147 145 143 142 141 140 143 146 151 144 136 136 131 125 120 126 119 141 172 173 185 190 199 225 242 241 239 237 231 230 228 228 227 225 225
222 229 208 207 219 221 229 238 245 252 263 268 276 277 269 274 288 264 218 185 150 167 156 149 153 156 164 167 164 164 161 159 160 160 159 158 155 152 156 158 156 157 155 152 149 150 153 152 152 153 150 148 147 145 144 144 145 144 143 143 146 150 145 144 143 140 138 140 144 147 151 145 140 136 108 97 78 50 4 339 219 221 225 230 238 243 259 263 257 251 245 243 238 234 234 230 231
214 223 218 206 210 211 222 229 242 247 253 261 264 264 260 270 273 236 193 172 162 164 157 154 157 164 169 167 164 162 161 161 160 159 156 152 150 152 155 156 157 157 153 151 149 149 151 152 153 152 150 148 145 144 141 141 145 143 144 145 146 149 146 148 147 145 146 147 149 152 157 150 145 144 102 121 169 205 292 281 244 231 238 238 245 251 260 269 274 271 263 257 251 247 243 235 236
199 218 222 219 220 212 214 222 234 243 244 246 254 261 255 212 240 214 160 160 172 165 158 160 165 170 170 167 164 161 161 162 157 156 154 152 156 154 150 154 156 154 150 149 149 148 150 152 153 152 151 147 144 142 140 140 142 142 146 146 143 145 145 146 145 142 143 146 152 154 156 153 141 139 128 112 206 252 245 251 239 220 231 232 241 247 254 264 270 274 274 270 264 258 255 247 243
178 211 221 225 233 231 228 233 231 238 237 230 243 257 245 205 230 208 144 153 175 167 159 167 173 171 169 167 165 164 162 158 155 156 155 156 158 152 149 156 156 152 150 152 150 148 150 151 151 153 150 145 144 140 138 141 142 143 145 140 136 136 135 132 130 133 138 143 151 148 150 149 137 130 122 105 112 109 140 144 221 210 215 218 236 243 252 263 262 265 268 272 270 264 261 255 250
199 201 223 219 223 232 226 226 225 227 224 211 229 244 226 209 208 144 135 153 170 170 163 168 175 171 168 167 166 166 159 153 156 159 158 157 153 149 148 153 155 153 153 154 152 150 151 151 152 153 148 145 143 140 141 142 141 142 138 135 133 129 125 123 129 138 141 136 130 128 135 141 135 121 112 110 114 110 110 108 97 265 268 239 247 254 262 266 261 264 264 266 269 265 263 259 254
213 208 234 216 210 227 214 209 214 219 216 198 217 229 204 193 165 115 135 161 168 170 169 171 175 171 167 168 164 157 145 143 145 127 117 114 113 135 140 146 156 157 155 155 155 153 151 153 154 150 146 145 142 141 141 138 137 135 130 130 128 125 124 125 135 134 125 122 115 114 117 126 125 118 109 105 102 94 100 97 10 304 297 279 269 263 266 261 256 261 265 268 268 266 268 265 262
209 204 223 225 225 215 186 190 199 204 199 191 221 239 192 158 126 120 146 169 174 175 175 173 172 169 168 164 155 146 137 135 126 96 98 111 108 122 136 150 161 158 157 157 155 154 154 155 152 146 144 144 142 140 138 136 134 130 129 131 126 124 123 121 126 122 116 119 119 112 109 115 115 114 111 106 112 108 130 172 246 274 292 297 288 280 276 271 266 264 262 266 266 265 266 267 269
204 203 207 213 225 182 159 183 196 197 187 190 219 232 164 138 133 157 174 180 184 182 175 173 174 171 165 157 150 149 144 135 126 115 125 136 136 139 149 161 162 158 157 155 155 156 153 150 146 143 142 142 141 139 137 137 133 128 127 127 125 123 120 120 122 122 120 118 118 116 112 116 116 118 122 128 134 129 157 346 329 287 298 303 298 296 292 289 288 284 276 271 270 266 262 262 265
201 209 208 197 206 192 157 177 195 201 190 189 215 228 160 141 154 175 186 184 185 189 180 171 169 162 154 153 153 149 146 143 141 143 147 144 142 146 157 166 163 158 155 154 157 154 147 147 146 144 144 144 142 138 138 135 129 127 126 122 123 123 120 119 118 119 120 115 114 115 112 115 120 122 123 125 116 78 350 336 334 321 319 317 313 305 301 302 300 296 291 284 279 275 270 264 261
191 205 214 190 199 207 168 160 184 201 202 193 210 234 202 138 166 179 183 184 187 199 185 154 116 91 84 83 98 97 125 151 151 160 159 147 148 154 159 167 165 155 152 156 158 154 152 154 151 150 151 148 145 141 138 133 127 127 126 120 121 124 122 119 123 126 121 117 111 110 114 112 115 116 105 97 67 335 323 314 314 326 326 320 316 311 310 309 305 300 295 290 284 281 281 277 273
188 191 201 187 194 210 191 158 169 186 203 201 201 217 189 146 173 177 176 181 161 80 60 78 82 90 97 91 86 86 152 163 154 171 169 154 154 156 157 167 166 155 155 158 156 156 158 156 153 155 155 151 149 144 138 134 131 130 126 125 128 129 128 123 126 129 121 116 105 100 108 102 92 88 73 27 340 316 314 317 313 313 310 313 314 311 313 310 305 301 296 294 289 283 283 283 284
194 184 193 194 189 205 197 151 153 181 200 201 200 207 188 172 183 179 170 147 99 78 73 61 57 78 109 120 117 130 161 132 101 130 170 169 163 156 159 165 158 156 164 163 157 160 161 158 157 157 153 151 151 145 143 146 142 137 135 133 133 127 123 117 111 108 99 92 86 81 82 78 68 51 19 344 342 324 320 322 315 308 309 315 313 310 314 312 305 301 298 297 294 291 288 283 286
192 183 197 203 194 196 190 155 144 186 205 197 200 205 189 184 186 180 160 121 93 96 108 106 116 138 137 124 120 127 124 89 90 91 269 223 174 152 159 159 148 156 171 164 161 166 163 159 155 151 151 152 153 149 151 154 145 141 140 134 126 118 116 111 101 91 82 77 76 75 70 64 62 51 21 360 349 336 332 322 315 316 318 316 314 313 315 312 307 302 300 298 295 297 298 293 293
191 191 197 202 204 190 178 165 148 183 211 197 195 204 191 187 184 172 151 124 120 137 131 136 152 165 162 132 130 137 132 120 135 158 189 194 169 162 175 169 157 167 178 168 165 165 159 154 151 149 152 155 156 153 150 145 138 138 136 129 121 112 107 104 94 83 78 75 70 67 61 53 48 41 24 10 357 344 340 331 326 327 325 322 320 319 316 314 312 308 307 306 301 298 299 299 297
195 201 200 202 203 173 153 161 155 177 214 193 184 201 185 160 145 138 131 125 148 171 151 150 155 163 166 145 146 153 153 155 155 171 172 152 155 183 209 207 165 170 176 169 163 158 154 152 151 153 153 152 150 148 143 135 131 131 128 124 119 105 92 90 89 81 78 74 67 62 54 43 38 33 22 13 360 347 343 338 336 334 332 329 324 320 318 318 319 319 321 319 314 308 304 301 293
208 208 204 205 193 182 168 166 164 176 222 207 183 196 171 120 91 98 115 126 152 173 152 153 157 161 164 153 157 163 158 155 158 170 157 136 147 161 168 232 175 165 165 160 155 151 152 153 151 151 150 147 142 135 129 123 121 117 111 111 112 109 103 100 98 91 82 74 66 58 49 40 32 25 16 12 5 354 348 343 341 339 337 334 328 325 322 322 324 326 328 322 317 315 313 310 300
214 216 215 209 187 191 180 151 158 167 211 215 183 192 183 157 149 123 126 143 162 171 155 156 157 151 154 154 161 164 153 159 163 163 155 144 146 134 134 187 200 171 158 155 154 151 152 155 153 148 143 142 137 129 123 121 121 115 110 110 110 113 115 112 103 94 87 74 59 48 39 29 20 13 8 9 5 359 356 349 348 346 341 339 336 330 325 324 324 322 323 317 313 314 313 312 305
204 215 230 228 190 184 146 143 162 174 198 198 191 201 191 179 177 147 146 167 171 182 177 170 158 150 158 162 163 160 153 171 172 160 156 150 143 134 143 183 187 162 152 149 149 147 146 148 146 139 134 134 130 126 127 129 129 125 121 121 121 120 112 92 73 72 76 67 51 35 22 16 12 11 11 11 7 5 7 2 359 356 350 348 341 334 331 328 326 324 324 316 309 309 309 307 303
201 196 213 229 189 185 174 168 182 195 192 182 198 219 190 177 183 158 161 177 171 180 189 181 169 162 168 170 166 159 157 174 176 163 157 147 141 138 142 164 152 138 142 141 137 136 135 132 129 126 122 121 120 121 125 124 120 113 104 102 107 113 107 92 81 79 77 60 43 27 17 13 14 19 19 16 17 16 14 12 8 4 358 355 350 346 342 335 333 332 331 325 315 310 306 302 302
196 169 182 190 179 186 188 190 201 203 162 154 198 225 224 196 183 163 168 178 170 177 189 185 183 179 179 178 168 162 167 177 173 162 154 144 140 135 130 136 128 123 135 136 130 127 127 122 117 115 110 108 106 102 101 99 98 95 92 90 90 91 96 102 107 106 92 52 37 28 18 13 17 27 29 26 27 24 20 15 9 6 3 360 357 354 349 342 338 336 332 331 325 315 307 301 301
172 151 173 183 183 191 195 205 211 201 180 193 195 207 232 216 165 159 173 180 176 178 186 191 193 189 187 183 172 169 175 177 168 159 151 138 129 122 124 132 128 124 128 125 120 117 115 114 111 108 104 102 99 94 92 90 90 91 94 97 96 95 99 110 128 129 93 54 40 33 25 27 29 35 37 33 34 30 26 22 16 12 6 3 357 350 347 343 340 336 332 330 327 319 311 304 301
151 154 175 177 188 202 207 218 217 200 216 222 195 185 216 219 159 162 180 188 186 179 183 193 195 195 193 185 177 172 173 172 166 158 140 119 109 109 118 120 111 110 113 111 112 109 108 110 107 103 101 96 95 101 104 97 88 83 83 91 102 114 124 141 138 84 49 25 33 36 38 45 44 40 34 31 32 27 23 21 18 13 7 2 357 350 346 344 341 338 333 329 328 323 317 311 304
154 173 188 179 194 203 208 225 231 221 221 225 206 189 208 218 174 173 187 192 189 181 182 189 191 195 195 187 179 171 168 167 163 152 125 107 105 112 115 105 101 106 105 103 109 109 108 107 102 98 96 93 96 104 101 89 78 74 74 75 76 77 82 80 75 59 29 22 34 38 40 45 43 38 29 22 21 17 13 13 6 0 357 352 349 346 340 338 335 330 328 326 324 323 320 319 313
169 186 193 183 191 192 203 210 214 229 227 220 210 193 204 221 194 175 182 185 185 184 185 186 187 192 194 188 178 170 167 164 155 142 121 112 113 115 107 99 105 117 116 107 111 112 108 106 102 96 93 96 101 100 90 79 73 75 74 75 74 74 77 68 60 49 39 40 39 37 41 40 36 32 25 17 14 10 6 4 1 358 356 352 349 348 341 337 334 329 326 326 325 324 322 324 321
187 193 191 191 188 183 203 201 200 221 225 209 199 187 201 224 209 170 176 183 185 187 191 188 185 188 189 186 177 167 161 155 146 134 123 118 115 111 110 110 118 128 126 114 114 114 111 110 106 101 97 96 95 90 82 77 77 74 76 82 82 82 83 76 71 61 55 55 48 45 43 39 36 30 26 22 14 11 8 3 4 4 1 356 352 350 345 340 337 332 329 327 327 325 323 324 319
193 195 188 193 190 183 201 199 200 212 192 150 187 189 207 219 187 162 175 186 187 189 195 190 185 186 184 178 169 153 142 145 143 133 123 122 124 127 129 130 134 135 128 119 116 113 111 110 104 100 100 96 91 90 85 79 77 75 76 80 79 83 84 81 80 73 67 66 60 54 49 45 43 36 32 28 19 16 15 8 8 6 1 357 352 350 348 344 341 336 332 332 331 327 325 323 319
194 201 196 203 201 191 203 202 203 205 180 158 177 189 215 210 154 133 161 179 185 188 187 177 180 183 173 163 155 138 134 143 140 131 130 136 141 142 136 132 138 139 130 121 114 112 111 108 104 102 102 100 95 92 87 80 78 75 75 78 81 85 89 85 83 77 74 72 67 63 58 52 51 47 41 35 26 23 22 17 15 12 6 4 0 357 355 351 349 347 344 341 340 337 333 329 323
192 201 203 209 210 202 202 203 227 208 178 166 176 189 211 162 116 110 139 163 181 185 172 164 173 165 148 149 148 134 135 147 142 132 134 140 141 141 134 131 136 135 126 117 113 113 113 109 107 105 102 100 94 89 88 84 81 78 74 76 78 83 90 90 85 81 79 77 74 71 65 58 55 53 46 38 32 28 26 24 22 18 13 9 5 3 1 359 358 357 354 351 349 345 342 340 336
184 200 207 206 213 218 202 133 58 85 198 180 184 191 146 132 152 158 165 171 177 178 169 168 170 157 149 151 145 138 143 149 144 137 140 144 142 140 135 131 131 129 122 118 116 117 115 111 110 107 101 97 90 86 87 86 84 81 75 75 79 83 89 90 89 87 84 81 79 75 69 64 58 54 49 42 37 34 31 30 26 21 17 12 8 7 5 4 3 1 358 356 353 349 346 346 345
189 198 201 195 214 238 222 195 169 196 216 189 183 197 183 175 176 160 172 178 172 173 172 171 170 162 156 151 146 148 150 147 144 144 147 147 144 140 132 127 125 126 124 121 120 118 116 114 111 107 102 98 92 89 89 88 88 84 80 82 86 88 90 90 89 87 85 83 79 75 71 66 61 56 52 47 42 39 35 31 26 21 17 13 11 10 7 7 6 2 359 358 355 353 351 348 347
223 210 196 191 205 212 206 210 199 198 214 205 195 207 202 193 180 164 175 179 173 175 174 172 175 171 162 154 153 151 147 145 147 148 146 144 144 141 133 128 128 130 129 126 123 121 118 116 113 109 105 101 97 94 90 88 90 91 91 91 92 92 91 90 89 86 84 82 78 77 73 69 66 61 57 52 47 42 36 29 25 20 18 15 13 12 9 9 8 3 1 360 358 356 355 352 350
229 223 204 202 212 211 206 215 217 205 212 211 202 205 209 203 182 170 175 178 177 178 177 179 182 179 170 157 154 151 147 148 149 148 145 142 145 143 135 132 134 135 133 128 123 122 121 120 118 114 108 102 98 96 94 91 92 97 99 98 95 93 90 88 86 83 80 78 76 79 77 72 70 65 60 56 50 45 37 31 26 22 19 16 14 12 10 9 9 5 1 359 358 358 357 354 353
202 212 202 198 207 217 214 214 219 224 220 208 203 210 210 187 168 172 177 177 179 182 182 185 185 179 168 156 153 150 145 147 148 146 144 142 144 141 136 135 135 135 132 125 122 122 121 121 120 117 112 105 100 98 99 98 98 100 101 99 95 92 87 85 83 81 79 76 74 76 77 76 72 67 63 58 53 47 39 33 28 24 21 17 14 12 11 10 9 5 1 358 357 357 356 355 353
196 208 202 199 200 202 210 211 208 220 234 223 215 216 185 138 162 183 182 177 182 187 184 181 180 174 161 152 151 144 141 146 146 144 144 144 143 142 140 138 138 137 131 123 122 123 122 122 121 117 112 106 104 105 106 105 104 103 100 98 95 91 87 84 84 82 79 77 73 74 77 78 75 69 65 60 55 49 41 36 31 27 23 18 15 12 10 10 9 5 1 358 355 355 355 354 351